{"data":{"norad_id":57070,"epoch":"2026-05-25T00:32:52.007424Z","epoch_age_seconds":63233,"freshness":"FRESH","line1":"1 57070U 23088Y   26145.02282416  .00000178  00000+0  15986-4 0  9991","line2":"2 57070  43.0016  25.1171 0001008 231.2685 128.8077 15.27576571162174","mean_motion":15.27576571,"eccentricity":0.0001008,"inclination_deg":43.0016,"raan_deg":25.1171,"arg_perigee_deg":231.2685,"mean_anomaly_deg":128.8077,"bstar":1.5986e-5,"rev_number":16217,"period_min":94.266960317238,"perigee_km":482.36775512497,"apogee_km":483.7509723119,"semimajor_km":6861.1963637184,"source":"CELESTRAK","updated_at":"2026-05-25T13:38:18.212881Z"}}